Regional Weather Roundup
Issued by NWS

Home | Current Version | Previous Version | Graphics & Text | Print | Product List | Glossary Off
Versions: 1 2 3 4 5 6 7 8 9 10 11 12 13 14 15 16 17 18 19 20 21 22 23 24 25 26 27 28 29 30 31 32 33 34 35 36 37 38 39 40 41 42 43 44 45 46 47 48 49 50

980
ASUS43 KLSX 290359
RWRMO

WEATHER SUMMARY FOR MISSOURI
NATIONAL WEATHER SERVICE SPRINGFIELD MO
1100 PM CDT FRI APR 28 2017

NOTE: "FAIR" INDICATES FEW OR NO CLOUDS BELOW 12,000 FEET WITH NO
       SIGNIFICANT WEATHER AND/OR OBSTRUCTIONS TO VISIBILITY.
       CURRENT SKY AND/OR WEATHER CONDITIONS ARE NOT AVAILABLE FOR
       CHILLICOTHE AND FARMINGTON.

MOZ001>031-035>038-043-044-053-054-290500-
...NORTHERN AND WESTERN MISSOURI...

CITY           SKY/WX    TMP DP  RH WIND       PRES   REMARKS
KANSAS CTY INT CLOUDY    45  44  97 N10       29.96R
KANSAS C DTWN  CLOUDY    48  45  89 N10       29.95R
LEE`S SUMMIT   CLOUDY    47  47 100 N14       29.93R FOG
ST JOSEPH      CLOUDY    44  44 100 NE10      29.99R
CHILLICOTHE      N/A     46  44  93 N7        29.97R
KIRKSVILLE     CLOUDY    45  31  58 N13       29.96R HAZE

$$
MOZ066>068-077>081-088>096-101>105-290500-
...SOUTHWEST MISSOURI...

CITY           SKY/WX    TMP DP  RH WIND       PRES   REMARKS
SPRINGFIELD    TSTM      62  62 100 SE3       29.81R FOG
JOPLIN         CLOUDY    63  61  93 E8        29.80F

$$
MOZ032>034-039>042-045>050-055>058-069>072-290500-
...CENTRAL MISSOURI...

CITY           SKY/WX    TMP DP  RH WIND       PRES   REMARKS
COLUMBIA       CLOUDY    58  58 100 N8        29.85F FOG
JEFFERSON CITY CLOUDY    61  57  87 N6        29.84F
ROLLA          FOG       59  59 100 N6        29.82F VSB 1/2
SEDALIA        CLOUDY    60  60 100 N13       29.86F
OSAGE BEACH    FOG       60  60 100 N3        29.84F VSB 1

$$
MOZ051-052-059>065-290500-
...EAST CENTRAL MISSOURI...

CITY           SKY/WX    TMP DP  RH WIND       PRES   REMARKS
ST LOUIS INTL  MOCLDY    59  56  89 N3        29.85F FOG
SPIRIT OF STL  CLOUDY    59  58  96 NE5       29.82F FOG
ST CHARLES     CLOUDY    58  58 100 N7        29.85F

$$
MOZ072>076-082>087-097>100-106>115-290500-
...SOUTH CENTRAL AND SOUTHEAST MISSOURI...

CITY           SKY/WX    TMP DP  RH WIND       PRES   REMARKS
CAPE GIRARDEAU CLOUDY    69  66  90 W12       29.80R THUNDER
FARMINGTON     FOG       62  62 100 N5        29.83S VSB 3/4
POPLAR BLUFF   CLOUDY    66  66 100 N9        29.79R FOG
WEST PLAINS    CLOUDY    64  63  96 E5        29.79F FOG

$$




USA.gov is the U.S. government's official web portal to all federal, state and local government web resources and services.